CZ-4C DEB, 38657

Orbit data source: Space-Track

CZ-4C DEB, 38657 is space debris in SSO originally from a launch on Tue, 15 Dec 2009 UTC launched from the Taiyaun Space Center, China (TSC). Debris objects in space refer to the collection of defunct objects orbiting the Earth. Examples of debris include non-operational satellites, rocket bodies, and fragments generated from explosions, collisions, or faulty payload assembly.

Loading next visibility...
Identifier
38657, 2009-072E
Orbit
SSO
Last TLE update
12 hours ago
Origin
Manufacturer
Unknown
Mission
Spacecraft
Bus & Motor
Unknown
Mass
Unknown
Launch date (UTC)
2009-12-15 (15 years ago)
Launch vehicle
Unknown
Launch site
Taiyaun Space Center, China (TSC)
Object type
Payload
Rocket body
Debris
Shape & HBR
Unknown
Radar Cross Section
Small (<0.1 m²)

Expand to show TLE details & history

TLE from 12 hours ago
0 CZ-4C DEB
1 38657U 09072E   25131.06335741  .00000161  00000-0  46949-3 0  9991
2 38657 100.2743 223.1789 0132341 256.1928 228.8885 13.22916288739627
Epoch: 2025-05-11T01:31Z
Definitive object data (Epoch: 2025-05-11T01:31:14.08Z)
Latitude
54.80329°
Longitude
166.08932°
Altitude
1,249.002 km
Speed
7.204 km/s
True Right ascension
03h 51m 58s
True Declination
54° 39' 06"
Sunlit
Object was in daylight at TLE epoch
Visualization TLE readout
Latitude
-79.7773°
Longitude
61.85764°
Altitude
1,104.903 km
Speed
7.346 km/s
Apparent Right ascension
09h 37m 44s
Apparent Declination
-72° 34' 04"
Sunlit
Object is in daylight
Visualization observer readout
Local Sidereal Time
21:26:11
Azimuth
181.6° SSW
Elevation
-57.317°
Doppler factor
1
Orbital elements
Apogee altitude
1,270.874 km
Perigee altitude
1,071.063 km
Semi-major axis
7,549.105 km
Eccentricity
0.0132341
Inclination
100.2743°
RAAN
223.1789°
Arg. of periapsis
256.1928°
True anomaly
227.75828°
Mean anomaly
228.8885°
Eccentric anomaly
228.32216°
Mean motion
3.30902 °/min
BSTAR
0.00046949
Orbital period
108.79 mins
Loading maneuver chart data...
Loading SW <> Apogee altitude chart data...
Loading historical data...
Loading historical data...
Loading historical data...
Loading historical data...
Loading historical data...
Loading historical data...
Loading historical data...

CZ-4C DEB Visibility forecast

Observer location: undefined°, undefined°

Span
Click to sort rows by Start time (UTC) header in descending order
Start Az.
Max El. time (UTC)
Max El. Az.
Max El.
End time (UTC)
End Az.
11 mins2025-05-11 17:51:22.325Z40.963° NE2025-05-11 17:56:22.325Z87.721° E24.816°2025-05-11 18:02:22.325Z148.802° SSE
12 mins2025-05-11 19:38:22.325Z4.586° NNE2025-05-11 19:44:22.325Z291.333° WNW39.595°2025-05-11 19:50:22.325Z218.796° SW
8 mins2025-05-12 04:18:22.325Z87.039° E2025-05-12 04:21:22.325Z58.067° ENE19.69°2025-05-12 04:26:22.325Z13.892° NNE
12 mins2025-05-12 06:02:22.325Z166.847° S2025-05-12 06:07:22.325Z200.957° SSW44.471°2025-05-12 06:14:22.325Z342.629° N
5 mins2025-05-12 07:54:22.325Z257.84° W2025-05-12 07:56:22.325Z275.404° WNW13.687°2025-05-12 07:59:22.325Z299.872° NW
|